[[{"header":{"parameterUnit":"m.s-1","parameterCategory":1,"la1":30.2992,"la2":30.254,"lo1":-89.0895,"lo2":-89.0443,"dy":0.0025,"dx":0.0025,"nx":19,"ny":19,"refTime":"2026-04-11T21:00:00:Z","depth":0,"parameterNumber":2,"parameterNumberName":"U-component_of_WINDS"},"data":[0,0,0,-4.7041,-4.7044,-4.717,-4.717,-4.7344,-4.7345,0,0,0,0,0,0,0,0,0,0,0,-4.7011,-4.7013,-4.7041,-4.7044,-4.717,-4.717,-4.7343,-4.7345,0,0,0,0,0,0,0,0,0,0,0,-4.701,-4.7012,-4.7014,-4.7045,-4.7169,-4.717,-4.7343,-4.7244,0,0,0,0,0,0,0,0,0,0,-4.7119,-4.7099,-4.7012,-4.7014,-4.7045,-4.7169,-4.717,-4.7239,-4.725,-4.7292,0,-4.7332,0,-4.7342,-4.7358,-4.7358,0,0,0,-4.7038,-4.709,-4.7117,-4.7014,-4.7047,-4.7169,-4.7111,-4.7245,-4.7257,-4.7307,-4.7334,-4.734,-4.7344,-4.7359,-4.736,-4.7625,-4.7626,0,0,-4.7031,-4.7037,-4.7108,-4.7126,-4.7107,-4.7107,-4.7115,-4.7252,-4.7282,-4.7335,-4.7344,-4.7347,-4.736,-4.7362,-4.7623,-4.7625,0,0,0,-4.7015,-4.7033,-4.7057,-4.7119,-4.7141,-4.7111,-4.712,-4.7276,-4.7283,-4.7346,-4.7349,-4.7361,-4.7364,-4.7622,-4.7624,-4.7704,0,0,0,-4.7011,-4.7023,-4.7054,-4.7059,-4.7138,-4.721,-4.7141,-4.7273,-4.7289,-4.7348,-4.7361,-4.7365,-4.762,-4.7623,-4.7698,-4.774,0,0,0,-4.7,-4.7022,-4.7043,-4.7059,-4.7113,-4.7207,-4.7222,-4.7277,-4.7291,-4.7359,-4.7366,-4.7619,-4.7623,-4.7693,-4.7731,-4.7811,0,0,0,-4.6991,-4.7111,-4.7044,-4.7181,-4.7112,-4.7256,-4.7221,-4.7328,-4.7395,-4.7362,-4.762,-4.7624,-4.7691,-4.7726,-4.7806,-4.7878,-4.7909,0,0,-4.7146,-4.713,-4.7211,-4.7154,-4.7312,-4.7237,-4.7406,-4.7462,-4.7463,-4.7571,-4.7577,-4.77,-4.7731,-4.781,-4.8085,-4.811,0,0,0,-4.7262,-4.7319,-4.736,-4.7425,-4.7472,-4.7515,-4.7544,-4.7565,-4.7657,-4.752,-4.7751,-4.7769,-4.7816,-4.785,-4.7871,-4.791,-4.7641,-4.764,-4.764,-4.7489,-4.7485,-4.7618,-4.7629,-4.7693,-4.7724,-4.7776,-4.7809,-4.7785,-4.7841,-4.7872,-4.8039,-4.808,-4.8095,-4.8136,-4.7911,-4.7912,-4.7912,-4.7912,-4.7716,-4.7796,-4.7765,-4.7881,-4.7877,-4.7975,-4.8011,-4.7992,-4.8083,-4.8015,-4.8055,-4.798,-4.8123,-4.8158,-4.7918,-4.7917,-4.7916,-4.7916,-4.7915,-4.7862,-4.79,-4.7925,-4.802,-4.8095,-4.8104,-4.8193,-4.8186,-4.818,-4.8221,-4.8253,-4.8251,-4.8248,-4.8237,-4.8238,-4.8238,-4.8239,-4.8239,-4.824,-4.8003,-4.8029,-4.8105,-4.8168,-4.821,-4.8264,-4.8299,-4.8341,-4.8384,-4.8372,-4.8373,-4.8343,-4.8138,-4.8086,-4.8248,-4.8247,-4.8246,-4.8245,-4.8244,-4.8231,-4.8179,-4.8297,-4.8339,-4.8413,-4.8488,-4.8479,-4.8565,-4.8598,-4.8643,-4.8607,-4.8457,-4.844,-4.8423,-4.8379,-4.8608,-4.8608,-4.8608,-4.8608,-4.8353,-4.8345,-4.8465,-4.8533,-4.86,-4.8605,-4.874,-4.877,-4.8792,-4.8813,-4.878,-4.8722,-4.8705,-4.8698,-4.8675,-4.8634,-4.8923,-4.8923,-4.8923,-4.8492,-4.8491,-4.8606,-4.8628,-4.8686,-4.8736,-4.8862,-4.8943,-4.8958,-4.8936,-4.8829,-4.8816,-4.8723,-4.8693,-4.8665,-4.8629,-4.8554,0,0]},{"header":{"parameterUnit":"m.s-1","parameterCategory":1,"la1":30.2992,"la2":30.254,"lo1":-89.0895,"lo2":-89.0443,"dy":0.0025,"dx":0.0025,"nx":19,"ny":19,"refTime":"2026-04-11T21:00:00:Z","depth":0,"parameterNumber":3,"parameterNumberName":"V-component_of_WINDS"},"data":[0,0,0,3.1277,3.1278,3.1331,3.1331,3.137,3.137,0,0,0,0,0,0,0,0,0,0,0,3.1246,3.1245,3.1277,3.1278,3.1331,3.1331,3.137,3.137,0,0,0,0,0,0,0,0,0,0,0,3.1246,3.1246,3.1245,3.1278,3.1331,3.1331,3.137,3.134,0,0,0,0,0,0,0,0,0,0,3.1293,3.1249,3.1246,3.1245,3.1278,3.133,3.1331,3.1339,3.1341,3.1334,0,3.1325,0,3.1348,3.1371,3.1371,0,0,0,3.1289,3.1246,3.1276,3.1245,3.1279,3.133,3.131,3.1341,3.1344,3.1338,3.1326,3.1328,3.1349,3.1371,3.1371,3.1296,3.1295,0,0,3.1286,3.1246,3.1273,3.1277,3.1269,3.1308,3.1311,3.1343,3.1326,3.1326,3.1329,3.1349,3.1371,3.1371,3.1297,3.1296,0,0,0,3.127,3.1243,3.1272,3.1274,3.1286,3.1309,3.1313,3.1325,3.1338,3.133,3.135,3.1371,3.1371,3.1298,3.1297,3.1216,0,0,0,3.1269,3.1234,3.127,3.1246,3.1285,3.1306,3.1294,3.1336,3.134,3.1349,3.1371,3.1371,3.1299,3.1297,3.122,3.1184,0,0,0,3.1248,3.1232,3.1235,3.1244,3.1266,3.1307,3.1322,3.1338,3.1352,3.1371,3.1371,3.13,3.1298,3.1224,3.119,3.1153,0,0,0,3.1212,3.116,3.1232,3.1182,3.1265,3.1257,3.1322,3.1318,3.1325,3.1371,3.1299,3.1297,3.1226,3.1194,3.1157,3.1115,3.1094,0,0,3.1123,3.1147,3.1121,3.1188,3.1157,3.1252,3.121,3.1252,3.1289,3.1291,3.129,3.1219,3.1191,3.1154,3.0989,3.0971,0,0,0,3.1079,3.1059,3.106,3.1066,3.1099,3.1125,3.1179,3.1195,3.1199,3.1283,3.1197,3.1181,3.1161,3.1143,3.1128,3.1114,3.1287,3.1287,3.1287,3.0894,3.0947,3.0907,3.0967,3.0972,3.103,3.1038,3.107,3.112,3.1099,3.1099,3.0993,3.097,3.0959,3.0943,3.1081,3.1081,3.1081,3.1081,3.0769,3.0749,3.0821,3.0808,3.0864,3.0853,3.0906,3.0943,3.094,3.0996,3.0981,3.1037,3.0938,3.0927,3.1075,3.1076,3.1077,3.1077,3.1078,3.0653,3.0654,3.0676,3.0692,3.0698,3.076,3.0755,3.0806,3.0853,3.0839,3.0845,3.0847,3.0855,3.0839,3.0838,3.0838,3.0838,3.0837,3.0837,3.0524,3.0553,3.0544,3.0577,3.0588,3.061,3.0669,3.0681,3.0708,3.0745,3.0745,3.0797,3.0919,3.0949,3.0832,3.0833,3.0833,3.0834,3.0834,3.0377,3.0419,3.0404,3.0416,3.0461,3.0463,3.053,3.055,3.0568,3.0564,3.062,3.0702,3.073,3.0742,3.0766,3.0609,3.0609,3.0609,3.0609,3.0279,3.03,3.0297,3.0313,3.0335,3.0394,3.0375,3.0421,3.0474,3.0488,3.0518,3.0556,3.0566,3.0587,3.0603,3.0627,3.0437,3.0437,3.0437,3.0192,3.0217,3.0192,3.0247,3.0286,3.0318,3.0302,3.0316,3.0385,3.0431,3.05,3.0507,3.0568,3.0586,3.0631,3.0654,3.0699,0,0]}]]